Regional Weather Roundup
Issued by NWS Sterling, VA

Home | Current Version | Previous Version | Text Only | Print | Product List | Glossary Off
Versions: 1 2 3 4 5 6 7 8 9 10 11 12 13 14 15 16 17 18 19 20 21 22 23 24 25 26 27 28

000
ASUS41 KLWX 021210
RWRLWX

REGIONAL WEATHER ROUNDUP
NATIONAL WEATHER SERVICE BALTIMORE MD/WASHINGTON DC
700 AM EST FRI DEC 02 2016

Note: "FAIR" indicates few or no clouds below 12,000 feet
with no significant weather and/or obstructions to visibility.
 TC=TEMPERATURE CELSIUS

 * =Non NWS site. Station does not report precipitation (e.g. rain,
    snow, etc.), thunder, or fog.

DCZ001-MDZ009-015-VAZ040>042-051-053>054-021300-
WASHINGTON METRO

CITY           SKY/WX    TMP DP  RH WIND       PRES   REMARKS
WASHINGTON NAT MOCLDY    45  27  49 NW10      30.05R
DULLES         PTCLDY    41  26  55 NW5       30.05R
ANDREWS AFB    PTCLDY    43  26  50 W14       30.03R
FT BELVOIR     PTCLDY    34  29  82 CALM      30.05R
QUANTICO       MOCLDY    35  30  82 NW9       30.08R WCI  28
COLLEGE PARK*  PTCLDY    43  27  52 W8        30.04R
LEESBURG*      PTCLDY    43  32  65 MISG      30.05R
MANASSAS*      CLEAR     36  32  87 CALM      30.06R
GAITHERSBURG*  CLOUDY    41  25  52 W10G16    30.06R

$$

MDZ006>007-011-014-021300-
BALTIMORE METRO

CITY           SKY/WX    TMP DP  RH WIND       PRES   REMARKS
BWI AIRPORT    MOCLDY    41  27  57 W10       30.01R
MD SCIENCE CTR   N/A     43  25  49 MISG      30.01R
MARTIN STATE   PTCLDY    43  28  56 W9        30.02R
ANNAPOLIS      CLEAR     45  26  47 W8        30.02R
FORT MEADE*    PTCLDY    37  28  70 W7        30.04S

$$

MDZ012-015-019>023-021300-
MARYLAND EASTERN SHORE

CITY           SKY/WX    TMP DP  RH WIND       PRES   REMARKS
OCEAN CITY     CLEAR     35  30  82 W5        30.02R
SALISBURY      CLEAR     34  29  82 W6        30.03R
BAY BRIDGE AP* CLEAR     45  28  53 W12G20    30.01S
CAMBRIDGE*     CLEAR     43  28  56 NW8       30.02S
EASTON*        CLEAR     45  27  49 NW9       30.05R

$$

MDZ017>025-021300-
SOUTHERN MARYLAND

CITY           SKY/WX    TMP DP  RH WIND       PRES   REMARKS
PATUXENT RIVER PTCLDY    33  29  85 SW7       30.05R
ST INIGOES     CLEAR     33  31  92 CALM      30.05R
LEONARDTOWN*   CLEAR     32  30  93 CALM      30.06R

$$

MDZ003>005-021300-
NORTH CENTRAL MARYLAND

CITY           SKY/WX    TMP DP  RH WIND       PRES   REMARKS
FREDERICK*     CLOUDY    41  30  65 W7        30.05S
HAGERSTOWN APT CLOUDY    42  25  50 SW7       30.01R
WESTMINSTER*   MOCLDY    37  27  65 W8        29.98S

$$

MDZ501>502-021300-
WESTERN MARYLAND

CITY           SKY/WX    TMP DP  RH WIND       PRES   REMARKS
OAKLAND*       CLOUDY    28  25  86 W10G17    29.96R WCI  19
CUMBERLAND*    NOT AVBL

$$

VAZ025>031-021300-
SHENANDOAH VALLEY

CITY           SKY/WX    TMP DP  RH WIND       PRES   REMARKS
WINCHESTER*    MOCLDY    37  27  65 NW12      30.04R
FRONT ROYAL*   CLOUDY    43  28  56 W3        30.03R
LURAY*         CLOUDY    43  32  65 SW6       30.04R
NEW MARKET*    PTSUNNY   36  29  75 CALM      30.04R
STAUNTON*      CLEAR     32  28  86 CALM      30.06R
WAYNESBORO*    FAIR      37  26  65 SW3       30.05R

$$

WVZ021-048>050-054>055-021300-
EASTERN WEST VIRGINIA PANHANDLE

CITY           SKY/WX    TMP DP  RH WIND       PRES   REMARKS
MARTINSBURG    PTCLDY    38  25  59 W12       30.03R
PETERSBURG*    CLOUDY    43  29  57 SW9       30.06R

$$

VAZ036>039-050-021300-
CENTRAL FOOTHILLS

CITY           SKY/WX    TMP DP  RH WIND       PRES   REMARKS
CHARLOTTESVILL PTCLDY    33  27  78 CALM      30.05R
CULPEPER*      MOCLDY    31  30  95 CALM      30.07R
ORANGE*          N/A     30  30 100 CALM      30.08R
GORDONSVILLE*  FAIR      29  28  95 SW3       30.06R
WARRENTON*     FAIR      30  26  84 CALM      30.05R

$$

VAZ055>057-021300-
NORTH AND CENTRAL PIEDMONT

CITY           SKY/WX    TMP DP  RH WIND       PRES   REMARKS
FREDERICKSBRG* CLEAR     31  31 100 CALM      30.07R
STAFFORD*      PTCLDY    27  27 100 CALM      30.11R

$$

NCZ024-NYZ072-PAZ021-071-VAZ022-071-021300-
OTHER REGIONAL OBSERVATIONS

CITY           SKY/WX    TMP DP  RH WIND       PRES   REMARKS
NEW YORK CITY  PTCLDY    41  28  60 VRB5      29.92R
PHILADELPHIA   MOCLDY    40  28  62 W9        29.97S
PITTSBURGH     MOCLDY    35  28  75 SW9       30.02R WCI  28
ROANOKE        PTCLDY    41  27  57 W12G24    30.11R
RICHMOND       PTCLDY    34  28  79 CALM      30.08R
RALEIGH        PTCLDY    33  30  88 CALM      30.12R

$$

ANZ530>537-021300-
MARINE OBSERVATIONS

STATION/POSITION TIME  TEMP    WIND        PRES
                       AIR SEA DIR/SP/G
                 (UTC) (F)     (DEG/KT/KT) (MB)
THOMAS PT LIGHT  1200   45 50  280/ 13/ 14   N/A
BALT KEY BRIDGE  1148   44     250/ 13/ 16 1015.9R
COVE POINT       1148   43     290/  4/  7 1017.8R
LEWISETTA        1148   40 52  270/  7/  8 1017.7R
SOLOMONS ISLAND  1136   42 52  270/  3/  5   N/A
PINEY POINT      1136          280/  6/  6   N/A

$$





USA.gov is the U.S. government's official web portal to all federal, state and local government web resources and services.